Flag for Barbados

Past Weather in Bridgetown, Barbados — Yesterday and Last 2 Weeks

Now
82 °F

Passing clouds.


Feels Like: 89 °F
Forecast: 89 / 82 °F
Wind: 12 mph from East

Location: Grantley Adams
Current Time: Sep 23, 2020 at 12:33:59 am
Latest Report: Sep 23, 2020 at 12:00 am
Visibility: N/A
Pressure29.89 "Hg
Humidity: 79%
Dew Point: 75 °F
Location of BridgetownLocation

Past Weather in Bridgetown — Graph

°F

Bridgetown Temperature Yesterday

Maximum temperature yesterday: 90 °F (at 9:00 am)
Minimum temperature yesterday: 81 °F (at 4:00 am)
Average temperature yesterday: 85 °F

High & Low Weather Summary for the Past Weeks

 TemperatureHumidityPressure
High90 °F (Sep 10, 1:00 pm)94% (Sep 12, 6:00 pm)29.98 "Hg (Sep 12, 6:00 pm)
Low75 °F (Sep 10, 6:00 am)55% (Sep 11, 2:00 pm)29.77 "Hg (Sep 8, 3:00 am)
Average84 °F76%29.87 "Hg
* Reported Sep 7 11:00 pm — Sep 22 11:00 pm, Bridgetown. Weather by CustomWeather, © 2020

Note: Actual official high and low records may vary slightly from our data, if they occured in-between our weather recording intervals... More about our weather records

Bridgetown Weather History for the Previous 24 Hours

Scroll right to see more
 ConditionsComfort  
Time TempWeatherWind HumidityBarometerVisibility
11:00 pm
Tue, Sep 22
82 °FPassing clouds.9 mph79%29.89 "HgN/A
10:00 pm82 °FScattered showers. Passing clouds.8 mph84%29.92 "HgN/A
9:00 pm82 °FPassing clouds.9 mph79%29.92 "HgN/A
8:00 pm82 °FPassing clouds.8 mph79%29.89 "HgN/A
7:00 pm82 °FPassing clouds.9 mph79%29.89 "HgN/A
6:00 pm84 °FScattered showers. Passing clouds.8 mph74%29.86 "HgN/A
5:00 pm88 °FScattered clouds.10 mph66%29.86 "HgN/A
4:00 pm88 °FScattered showers. Scattered clouds.13 mph66%29.86 "HgN/A
3:00 pm90 °FScattered clouds.13 mph63%29.83 "HgN/A
2:00 pm90 °FScattered clouds.14 mph63%29.86 "HgN/A
1:00 pm90 °FPassing clouds.12 mph67%29.89 "HgN/A
12:00 pm90 °FPassing clouds.10 mph67%29.89 "HgN/A
11:00 am90 °FScattered clouds.10 mph63%29.92 "HgN/A
10:00 am90 °FScattered clouds.9 mph63%29.92 "HgN/A
9:00 am90 °FScattered clouds.10 mph67%29.92 "HgN/A
8:00 am88 °FScattered clouds.12 mph66%29.92 "HgN/A
7:00 am86 °FPassing clouds.9 mph70%29.89 "HgN/A
6:00 am82 °FPassing clouds.9 mph79%29.86 "HgN/A
5:00 am82 °FScattered showers. Passing clouds.8 mph84%29.86 "HgN/A
4:00 am81 °FScattered showers. Passing clouds.6 mph89%29.86 "HgN/A
3:00 am82 °FPassing clouds.9 mph84%29.83 "HgN/A
2:00 am82 °FPassing clouds.7 mph84%29.86 "HgN/A
1:00 am82 °FPassing clouds.8 mph84%29.86 "HgN/A
12:00 am82 °FPassing clouds.12 mph84%29.89 "HgN/A
Weather by CustomWeather, © 2020

See weather overview